SV4JYD-14 Weather Reports


time (UTC)temp
F
wind
direction
speed
knots
gust
knots
rain 1hr
in
rain 24hr
in
rain mn
in
humidity
%
barometer
mb
20260507194527 69 0 2.6 0.0 0.00 0.00 0.00 42 1019.0
20260507193027 71 0 2.6 0.0 0.00 0.00 0.00 37 1019.0
20260507191526 71 0 2.6 0.0 0.00 0.00 0.00 37 1019.0
20260507190026 71 0 2.6 0.0 0.00 0.00 0.00 40 1019.0
20260507184526 69 0 2.6 0.0 0.00 0.00 0.00 44 1019.0
20260507183025 70 240 4.3 0.0 0.00 0.00 0.00 38 1019.0
20260507181525 70 240 4.3 0.0 0.00 0.00 0.00 41 1019.0
20260507180025 69 250 5.2 0.0 0.00 0.00 0.00 54 1018.0
20260507174525 72 250 5.2 0.0 0.00 0.00 0.00 40 1018.0
20260507173024 72 230 7.0 0.0 0.00 0.00 0.00 40 1018.0
20260507171524 74 230 8.7 0.0 0.00 0.00 0.00 38 1018.0
20260507170024 74 230 8.7 0.0 0.00 0.00 0.00 38 1018.0
20260507164524 74 230 8.7 0.0 0.00 0.00 0.00 38 1018.0
20260507163024 74 230 8.7 0.0 0.00 0.00 0.00 38 1018.0
20260507161523 74 230 8.7 0.0 0.00 0.00 0.00 38 1018.0
20260507160023 74 230 7.8 0.0 0.00 0.00 0.00 35 1018.0
20260507154523 74 230 7.8 0.0 0.00 0.00 0.00 35 1018.0
20260507153022 76 230 7.8 0.0 0.00 0.00 0.00 33 1018.0
20260507151522 76 230 7.8 0.0 0.00 0.00 0.00 33 1018.0
20260507150022 76 230 8.7 0.0 0.00 0.00 0.00 33 1018.0
20260507144522 76 230 8.7 0.0 0.00 0.00 0.00 33 1018.0
20260507143022 76 230 9.6 0.0 0.00 0.00 0.00 33 1018.0
20260507141521 76 230 9.6 0.0 0.00 0.00 0.00 33 1019.0
20260507140021 76 210 10.4 0.0 0.00 0.00 0.00 31 1019.0
20260507134520 76 210 10.4 0.0 0.00 0.00 0.00 31 1019.0
20260507133020 78 210 7.0 0.0 0.00 0.00 0.00 29 1019.0
20260507131520 78 210 7.0 0.0 0.00 0.00 0.00 29 1019.0
20260507130019 78 200 5.2 0.0 0.00 0.00 0.00 29 1019.0
20260507124519 78 200 5.2 0.0 0.00 0.00 0.00 29 1019.0
20260507123021 80 160 7.8 0.0 0.00 0.00 0.00 28 1019.0
20260507121519 80 160 7.8 0.0 0.00 0.00 0.00 28 1019.0
20260507120018 78 130 5.2 0.0 0.00 0.00 0.00 27 1019.0
20260507114518 78 130 5.2 0.0 0.00 0.00 0.00 27 1019.0
20260507113018 76 140 7.8 0.0 0.00 0.00 0.00 31 1019.0
20260507111517 76 140 7.8 0.0 0.00 0.00 0.00 31 1019.0
20260507110017 76 140 5.2 0.0 0.00 0.00 0.00 33 1019.0
20260507104517 72 140 5.2 0.0 0.00 0.00 0.00 46 1019.0
20260507103017 71 120 7.8 0.0 0.00 0.00 0.00 47 1019.0
20260507101517 71 120 7.8 0.0 0.00 0.00 0.00 51 1019.0
20260507100016 70 130 8.7 0.0 0.00 0.00 0.00 49 1019.0
20260507094516 72 130 8.7 0.0 0.00 0.00 0.00 45 1019.0
20260507093016 72 130 9.6 0.0 0.00 0.00 0.00 47 1019.0
20260507091515 71 130 9.6 0.0 0.00 0.00 0.00 48 1020.0
20260507090015 70 130 7.8 0.0 0.00 0.00 0.00 48 1019.0
20260507084515 71 130 7.8 0.0 0.00 0.00 0.00 48 1019.0
20260507083015 70 130 7.8 0.0 0.00 0.00 0.00 47 1019.0
20260507081514 69 130 7.8 0.0 0.00 0.00 0.00 51 1020.0
20260507080014 68 140 7.0 0.0 0.00 0.00 0.00 53 1019.0
20260507074514 67 140 7.0 0.0 0.00 0.00 0.00 55 1019.0
20260507073014 68 140 7.8 0.0 0.00 0.00 0.00 51 1019.0
20260507071513 69 140 7.8 0.0 0.00 0.00 0.00 53 1019.0
20260507070014 68 140 7.8 0.0 0.00 0.00 0.00 53 1019.0
20260507064513 67 140 7.8 0.0 0.00 0.00 0.00 52 1019.0
20260507063012 67 120 4.3 0.0 0.00 0.00 0.00 60 1019.0
20260507061512 66 120 4.3 0.0 0.00 0.00 0.00 64 1020.0
20260507060012 65 0 1.7 0.0 0.00 0.00 0.00 69 1019.0
20260507054512 64 0 1.7 0.0 0.00 0.00 0.00 69 1019.0
20260507053011 63 38 0.9 0.9 0.00 0.00 0.00 72 1019.0
20260507051511 61 0 0.0 0.0 0.00 0.00 0.00 74 1019.0
20260507050011 60 0 0.0 0.0 0.00 0.00 0.00 76 1018.0
20260507044511 58 58 0.9 0.9 0.00 0.00 0.00 77 1018.0
20260507043010 57 0 2.6 0.0 0.00 0.00 0.00 78 1018.0
20260507041510 56 0 2.6 0.0 0.00 0.00 0.00 78 1019.0
20260507031730 56 0 2.6 0.0 0.00 0.00 0.00 74 1018.0
20260507030229 56 360 0.9 4.3 0.00 0.00 0.00 72 1017.0
20260507024729 57 360 0.9 3.5 0.00 0.00 0.00 71 1017.0
20260507023229 57 360 0.9 3.5 0.00 0.00 0.00 70 1017.0
20260507021729 57 360 0.9 1.7 0.00 0.00 0.00 70 1018.0
20260507020228 56 165 4.3 4.3 0.00 0.00 0.00 69 1017.0
20260507014728 56 0 1.7 0.0 0.00 0.00 0.00 69 1017.0
20260507013228 56 0 1.7 0.0 0.00 0.00 0.00 69 1017.0
20260507011728 56 360 1.7 4.3 0.00 0.00 0.00 68 1018.0
20260507010227 56 360 0.9 3.5 0.00 0.00 0.00 65 1017.0
20260507004727 56 0 2.6 0.0 0.00 0.00 0.00 64 1017.0
20260507003227 57 0 2.6 0.0 0.00 0.00 0.00 63 1017.0
20260507001726 57 0 2.6 0.0 0.00 0.00 0.00 62 1018.0
20260507000227 57 360 0.9 4.3 0.00 0.00 0.00 61 1017.0
20260506233226 57 0 2.6 0.0 0.00 0.00 0.00 61 1017.0
20260506231725 57 0 2.6 0.0 0.00 0.00 0.00 62 1018.0
20260506230225 57 360 0.9 4.3 0.00 0.00 0.00 63 1017.0
20260506224725 57 0 2.6 0.0 0.00 0.00 0.00 65 1017.0
20260506223225 58 0 2.6 0.0 0.00 0.00 0.00 63 1017.0
20260506221724 58 0 2.6 0.0 0.00 0.00 0.00 61 1018.0
20260506220224 58 360 0.9 3.5 0.00 0.00 0.00 60 1018.0
20260506214724 58 0 2.6 0.0 0.00 0.00 0.00 56 1018.0
20260506213224 58 0 2.6 0.0 0.00 0.00 0.00 54 1018.0
20260506211723 58 0 2.6 0.0 0.00 0.00 0.00 53 1018.0
20260506210223 59 220 4.3 0.0 0.00 0.00 0.00 54 1017.0
20260506204723 59 220 4.3 0.0 0.00 0.00 0.00 55 1017.0
20260506203223 59 220 4.3 0.0 0.00 0.00 0.00 54 1017.0
20260506201722 59 220 4.3 0.0 0.00 0.00 0.00 52 1018.0
20260506200222 60 230 4.3 0.0 0.00 0.00 0.00 52 1017.0